Location: Bambrugge
(50.9212°N, 3.9299°E)
Time: 05:03:17
(UTC+00:00)

Cosmos 1833 - Pass Details

Date: 23 May 2024
Orbit: 835 x 863 km, 70.9° (Epoch: 19 June)

Event Time Altitude Azimuth Distance (km) Brightness Sun altitude
Exits shadow 02:58:17 - 213° (SSW) 2,735 6.2 -6.4°
Reaches altitude 10° 02:59:00 10° 213° (SSW) 2,463 6.0 -6.3°
Maximum altitude 03:04:40 79° 301° (WNW) 862 4.3 -5.6°
Drops below altitude 10° 03:10:20 10° 28° (NNE) 2,463 8.1 -5.0°
Sets 03:12:47 0° 30° (NNE) 3,399 9.1 -4.7°
